Location: Newark
(45.2500°N, 7.5833°E)
Time: 14:56:17
(UTC+00:00)

Tiros 1 despin weight - Pass Details

Date: 01 February 2020
Orbit: 594 x 642 km, 48.2° (Epoch: 23 February)

Event Time Altitude Azimuth Distance (km) Brightness Sun altitude
Rises 09:51:36 0° 262° (W) 2,845 ? 22.6°
Reaches altitude 10° 09:53:53 10° 265° (W) 1,949 ? 22.8°
Maximum altitude 09:58:21 68° 348° (NNW) 661 ? 23.2°
Drops below altitude 10° 10:02:53 10° 72° (ENE) 1,982 ? 23.5°
Sets 10:05:14 0° 75° (ENE) 2,898 ? 23.7°
